Fergus Falls, MN

6:41 AM CDT on June 27, 2017 (GMT -0500)
Fergus Falls Municipal-Mickelson

Weather History for KFFM - October, 2013

Change the Weather History Date:

Tuesday, October 29, 2013

  Actual Average Record
Temperature  
Mean Temperature 30 °F -  
Max Temperature 33 °F 49 °F 73 °F (1950)
Min Temperature 28 °F 29 °F 3 °F (1996)
Degree Days  
Heating Degree Days 34    
Moisture  
Dew Point 26 °F    
Average Humidity 82    
Maximum Humidity 93    
Minimum Humidity 64    
Precipitation  
Precipitation 0.04 in - - ()
Sea Level Pressure  
Sea Level Pressure 30.27 in    
Wind  
Wind Speed 4 mph (East)    
Max Wind Speed 10 mph    
Max Gust Speed -    
Visibility 7 miles    
Events Rain , Snow    
Averages and records for this station are not official NWS values.
T = Trace of Precipitation, MM = Missing Value Source: NWS Daily Summary

Daily Weather History Graph

Daily Weather History Graph

Search for Another Location

Airport or City:

Trip Planner

Search our weather history database for the weather conditions in past years. The results will help you decide how hot, cold, wet, or windy it might be!

Date:

Astronomy

Oct. 29, 2013 Rise Set
Actual Time 8:01 AM CDT 6:14 PM CDT
Civil Twilight 7:30 AM CDT 6:45 PM CDT
Nautical Twilight 6:55 AM CDT 7:20 PM CDT
Astronomical Twilight 6:20 AM CDT 7:55 PM CDT
Moon 2:36 AM CDT (10/29) 3:43 PM CDT (10/29)
Length of Visible Light 11h 14m
Length of Day
10h 12m
Waning Crescent, 25% of the Moon is Illuminated
Oct 29
Waning Crescent
Nov 3
New
Nov 9
First Quarter
Nov 17
Full
Nov 25
Last Quarter

Hourly Weather History & Observations

Time (CDT) Temp. Windchill Dew Point Humidity Pressure Visibility Wind Dir Wind Speed Gust Speed Precip Events Conditions
12:13 AM 28.4 °F 24.6 °F 19.4 °F 69% 30.45 in 10.0 mi ENE 3.5 mph - N/A   Clear
12:33 AM 28.4 °F 24.6 °F 19.4 °F 69% 30.45 in 10.0 mi ENE 3.5 mph - N/A   Clear
12:53 AM 28.4 °F 22.2 °F 19.4 °F 69% 30.44 in 10.0 mi ENE 5.8 mph - N/A   Clear
1:12 AM 28.4 °F - 19.4 °F 69% 30.43 in 10.0 mi Calm Calm - N/A   Clear
1:33 AM 28.4 °F - 19.4 °F 69% 30.43 in 10.0 mi Calm Calm - N/A   Clear
1:53 AM 28.4 °F 23.3 °F 19.4 °F 69% 30.44 in 10.0 mi ENE 4.6 mph - N/A   Clear
2:13 AM 30.2 °F 25.4 °F 19.4 °F 64% 30.43 in 10.0 mi East 4.6 mph - N/A   Mostly Cloudy
2:33 AM 30.2 °F 25.4 °F 19.4 °F 64% 30.44 in 10.0 mi ENE 4.6 mph - N/A   Scattered Clouds
2:53 AM 30.2 °F - 19.4 °F 64% 30.44 in 10.0 mi Calm Calm - N/A   Clear
3:13 AM 30.2 °F 25.4 °F 19.4 °F 64% 30.43 in 10.0 mi ENE 4.6 mph - N/A   Clear
3:33 AM 30.2 °F - 19.4 °F 64% 30.42 in 10.0 mi Calm Calm - N/A   Clear
3:53 AM 30.2 °F - 19.4 °F 64% 30.41 in 10.0 mi Calm Calm - N/A   Clear
4:13 AM 30.2 °F - 19.4 °F 64% 30.40 in 10.0 mi Calm Calm - N/A   Scattered Clouds
4:33 AM 30.2 °F - 21.2 °F 69% 30.39 in 10.0 mi Calm Calm - N/A   Mostly Cloudy
4:53 AM 30.2 °F 25.4 °F 21.2 °F 69% 30.37 in 10.0 mi East 4.6 mph - N/A   Mostly Cloudy
5:13 AM 30.2 °F 24.3 °F 21.2 °F 69% 30.36 in 10.0 mi East 5.8 mph - N/A   Overcast
5:33 AM 30.2 °F 26.7 °F 21.2 °F 69% 30.36 in 10.0 mi East 3.5 mph - N/A   Overcast
5:53 AM 30.2 °F 25.4 °F 21.2 °F 69% 30.35 in 10.0 mi East 4.6 mph - N/A   Overcast
6:13 AM 30.2 °F 25.4 °F 21.2 °F 69% 30.35 in 10.0 mi East 4.6 mph - N/A   Mostly Cloudy
6:33 AM 30.2 °F 25.4 °F 21.2 °F 69% 30.34 in 10.0 mi East 4.6 mph - N/A   Scattered Clouds
6:53 AM 30.2 °F 26.7 °F 21.2 °F 69% 30.34 in 10.0 mi ESE 3.5 mph - N/A   Mostly Cloudy
7:13 AM 30.2 °F 25.4 °F 21.2 °F 69% 30.33 in 10.0 mi ESE 4.6 mph - N/A   Overcast
7:33 AM 30.2 °F - 21.2 °F 69% 30.32 in 10.0 mi Calm Calm - N/A   Overcast
7:53 AM 30.2 °F - 23.0 °F 75% 30.32 in 10.0 mi Calm Calm - N/A   Overcast
8:13 AM 30.2 °F - 24.8 °F 80% 30.31 in 3.0 mi Calm Calm - N/A Snow Light Snow
8:33 AM 30.2 °F - 24.8 °F 80% 30.31 in 4.0 mi Calm Calm - N/A Snow Light Snow
8:53 AM 30.2 °F - 24.8 °F 80% 30.32 in 10.0 mi Calm Calm - N/A   Overcast
9:13 AM 30.2 °F - 24.8 °F 80% 30.32 in 10.0 mi Calm Calm - N/A   Overcast
9:33 AM 30.2 °F - 24.8 °F 80% 30.33 in 3.0 mi Calm Calm - N/A Snow Light Snow
9:53 AM 30.2 °F - 24.8 °F 80% 30.33 in 2.0 mi Calm Calm - N/A Snow Light Snow
10:13 AM 30.2 °F - 26.6 °F 86% 30.33 in 2.0 mi Calm Calm - N/A Snow Light Snow
10:33 AM 30.2 °F - 26.6 °F 86% 30.32 in 1.5 mi Calm Calm - 0.01 in Snow Light Snow
10:53 AM 30.2 °F 24.3 °F 26.6 °F 86% 30.31 in 1.8 mi NE 5.8 mph - 0.01 in Snow Light Snow
11:13 AM 30.2 °F 24.3 °F 28.4 °F 93% 30.31 in 10.0 mi NE 5.8 mph - N/A Snow Light Snow
11:33 AM 30.2 °F 23.4 °F 28.4 °F 93% 30.31 in 3.0 mi ENE 6.9 mph - N/A Snow Light Snow
11:53 AM 30.2 °F 24.3 °F 28.4 °F 93% 30.31 in 1.5 mi ENE 5.8 mph - N/A Snow Light Snow
12:13 PM 30.2 °F 25.4 °F 28.4 °F 93% 30.30 in 2.5 mi NE 4.6 mph - 0.01 in Snow Light Snow
12:33 PM 30.2 °F 25.4 °F 28.4 °F 93% 30.29 in 5.0 mi NE 4.6 mph - 0.01 in Snow Light Snow
12:53 PM 30.2 °F 24.3 °F 28.4 °F 93% 30.27 in 4.0 mi ENE 5.8 mph - 0.01 in Snow Light Snow
1:13 PM 30.2 °F 22.6 °F 28.4 °F 93% 30.26 in 4.0 mi ENE 8.1 mph - 0.01 in Snow Light Snow
1:33 PM 32.0 °F 24.8 °F 28.4 °F 87% 30.25 in 3.0 mi ENE 8.1 mph - 0.01 in Snow Light Snow
1:53 PM 32.0 °F 23.6 °F 28.4 °F 87% 30.24 in 5.0 mi ENE 10.4 mph - 0.01 in   Light Drizzle
2:13 PM 32.0 °F 24.8 °F 28.4 °F 87% 30.23 in 5.0 mi ENE 8.1 mph - N/A Rain Light Rain
2:32 PM 32.0 °F 24.8 °F 28.4 °F 87% 30.22 in 10.0 mi ENE 8.1 mph - N/A   Overcast
2:53 PM 32.0 °F 24.8 °F 28.4 °F 87% 30.20 in 7.0 mi East 8.1 mph - N/A   Overcast
3:13 PM 32.0 °F 24.8 °F 30.2 °F 93% 30.18 in 5.0 mi East 8.1 mph - N/A Rain Light Rain
3:33 PM 32.0 °F 24.8 °F 30.2 °F 93% 30.17 in 7.0 mi ENE 8.1 mph - N/A Rain Light Rain
3:53 PM 33.8 °F 27.0 °F 30.2 °F 87% 30.17 in 10.0 mi ENE 8.1 mph - N/A   Mostly Cloudy
4:13 PM 33.8 °F 27.0 °F 30.2 °F 87% 30.16 in 10.0 mi ENE 8.1 mph - N/A   Overcast
4:32 PM 33.8 °F 28.6 °F 30.2 °F 87% 30.17 in 4.0 mi ENE 5.8 mph - N/A   Overcast
4:53 PM 33.8 °F 27.7 °F 30.2 °F 87% 30.16 in 2.5 mi East 6.9 mph - 0.01 in   Overcast
5:13 PM 33.8 °F 27.7 °F 30.2 °F 87% 30.15 in 3.0 mi East 6.9 mph - N/A   Overcast
5:33 PM 33.8 °F 27.0 °F 30.2 °F 87% 30.15 in 4.0 mi East 8.1 mph - N/A   Overcast
5:53 PM 33.8 °F 27.7 °F 30.2 °F 87% 30.14 in 5.0 mi East 6.9 mph - N/A   Overcast
6:13 PM 33.8 °F 27.0 °F 30.2 °F 87% 30.14 in 7.0 mi East 8.1 mph - N/A   Overcast
6:32 PM 33.8 °F 27.7 °F 30.2 °F 87% 30.14 in 5.0 mi East 6.9 mph - N/A   Overcast
6:53 PM 33.8 °F 28.6 °F 30.2 °F 87% 30.15 in 4.0 mi East 5.8 mph - N/A   Overcast
7:13 PM 33.8 °F 29.6 °F 30.2 °F 87% 30.15 in 4.0 mi East 4.6 mph - N/A   Overcast
7:33 PM 33.8 °F - 32.0 °F 93% 30.15 in 3.0 mi Calm Calm - N/A   Overcast
7:53 PM 33.8 °F 29.6 °F 32.0 °F 93% 30.15 in 4.0 mi East 4.6 mph - N/A   Overcast
8:13 PM 33.8 °F 30.8 °F 32.0 °F 93% 30.14 in 4.0 mi East 3.5 mph - N/A   Overcast
8:33 PM 33.8 °F 29.6 °F 32.0 °F 93% 30.14 in 4.0 mi ESE 4.6 mph - N/A   Overcast
8:53 PM 33.8 °F 30.8 °F 32.0 °F 93% 30.13 in 5.0 mi East 3.5 mph - N/A   Overcast
9:13 PM 33.8 °F 28.6 °F 32.0 °F 93% 30.12 in 5.0 mi ESE 5.8 mph - N/A   Overcast
9:33 PM 33.8 °F 30.8 °F 32.0 °F 93% 30.13 in 10.0 mi East 3.5 mph - N/A   Overcast
9:53 PM 33.8 °F - 32.0 °F 93% 30.13 in 10.0 mi Calm Calm - N/A   Overcast
10:13 PM 33.8 °F - 32.0 °F 93% 30.13 in 10.0 mi Calm Calm - N/A   Overcast
10:33 PM 33.8 °F - 32.0 °F 93% 30.13 in 10.0 mi Calm Calm - N/A   Overcast
10:53 PM 33.8 °F - 32.0 °F 93% 30.13 in 5.0 mi Calm Calm - N/A   Overcast
11:13 PM 33.8 °F - 32.0 °F 93% 30.13 in 7.0 mi Calm Calm - N/A   Overcast
11:33 PM 33.8 °F - 32.0 °F 93% 30.12 in 5.0 mi Calm Calm - N/A   Overcast
11:53 PM 33.8 °F - 32.0 °F 93% 30.11 in 4.0 mi Calm Calm - N/A   Overcast